DECAYED

STARLINK-4093, 53157 (Decayed)

Orbit data source: Space-Track

STARLINK-4093, 53157 was a payload satellite owned by SpaceX/Seattle (US) in LEO that was launched on Sun, 17 Jul 2022 UTC via an FALCON 9 launch vehicle from the Air Force Eastern Test Range (AFETR). Payload-class satellites include a variety of spacecraft equipped with specific instruments for various scientific and technological missions. These include communications satellites like Starlink; space stations such as the ISS; scientific satellites like the Hubble; Earth observation satellites from companies like Planet Labs, Umbra, and HawkEye 360; GPS; miniature CubeSats for education and research; and military/defense satellites.

Not visible in the next 10 days
Identifier
53157, 2022-083AB
Orbit
Decayed
Country
Flag of USUS
Related business
Manufacturer
SpaceX/Seattle
Mission
Decayed Commercial Communications
Bus & Motor
STARLINK, Unknown motor
Mass
297 kg wet, ~275 kg dry
Launch date (UTC)
2022-07-17 (4 years ago)
Launch vehicle
FALCON 9
Launch site
Air Force Eastern Test Range (AFETR)
Object type
Payload
Rocket body
Debris
Shape & HBR
Box + 1 Pan, 10.1 m
Radar Cross Section
13.562 m², Large (>1 m²)

Expand to show TLE details & history
Last TLE update: 10 months ago

TLE from 10 months ago
0 STARLINK-4093
1 53157U 22083AB  25219.46277014  .11912686  12614-4  17237-3 0  9991
2 53157  53.2029  13.2119 0006874 286.1424  73.8871 16.48397744169477
Epoch: 2025-08-07T11:06Z
TLE epoch observation values (Epoch: 2025-08-07T11:06:23.340Z)
Latitude
-0.00003°
Longitude
-109.6122°
Altitude
143.267 km
Speed
7.822 km/s
True Right ascension
00h 52m 50s
True Declination
0° 00' 00"
Sunlit
Object was in full shadow at epoch
Visualization orbit readout
Latitude
Unknown
Longitude
Unknown
Altitude
Unknown
Speed
Unknown
Apparent Right ascension
Unknown
Apparent Declination
Unknown
Sunlit
N/A
Visualization observer readout
Local Sidereal Time
21:26:53
Azimuth
Unknown
Elevation
Unknown
Doppler factor
Unknown
Orbital elements
Apogee altitude
148.303 km
Perigee altitude
139.337 km
Semi-major axis
6,521.957 km
Eccentricity
0.00069
Inclination
53.2029°
RAAN
13.2119°
Arg. of periapsis
286.1424°
True anomaly
73.96279°
Mean anomaly
73.8871°
Eccentric anomaly
73.92495°
Mean motion
4.12075 °/min
Orbital period
87.36 mins
BSTAR
0.00017237
Loading maneuver chart data...
Computing Atmospheric mass density...
Loading historical data...
Loading historical data...
Loading historical data...
Loading historical data...
Loading historical data...
Loading historical data...
Loading historical data...

Documentation

Showing up to 5 results
|